#timestamp,LO_Frequency,Hit,StdDev 
1508295615.3,286047005.3,N
1508295635.2,286047008.6,N
1508295655.0,286047008.1,N
1508295655.9,286047008.1,N
1508295675.7,286047011.9,N
1508295695.6,286047012.0,N
1508295715.4,286047007.9,N
1508295735.2,286047008.2,N
1508295755.1,286047012.0,N
1508295756.0,286047012.0,N
1508295775.8,286047011.5,N
1508295795.6,286047013.0,N
1508295815.5,286047015.2,Y
1508295835.3,286047009.6,P
1508295855.1,286047005.3,N
1508295875.9,286047003.7,N
1508295895.7,286047001.5,N
1508295915.5,286047000.3,N
1508295935.4,286047002.7,N
1508295955.2,286047002.2,N
1508295975.0,286047002.2,N
1508295975.9,286047002.2,N
1508295995.8,286047002.1,N
1508296015.6,286047001.2,N
1508296035.4,286047000.1,N
1508296055.2,286047002.5,N
1508296075.1,286047002.2,N
1508296076.0,286047002.2,N
1508296095.8,286047000.5,N
1508296115.6,286047004.4,N
1508296135.5,286047005.0,N
1508296155.3,286047002.9,N
1508296175.1,286047005.3,N
1508296195.9,286047006.2,N
1508296215.7,286047004.6,N
1508296235.5,286047005.9,N
1508296255.4,286047003.2,N
1508296275.2,286047004.4,N
1508296295.0,286047002.3,N
1508296295.9,286047002.3,N
1508296315.8,286047000.4,N
1508296335.6,286047000.3,N
1508296355.4,286047007.6,Y
1508296375.3,286047006.9,P
1508296395.1,286047005.2,N
1508296396.0,286047005.2,P
1508296415.8,286047004.1,Y
1508296435.7,286046997.7,P
1508296455.5,286046998.7,N
1508296475.3,286047000.9,N
1508296495.2,286047004.2,N
1508296515.9,286047002.5,N
1508296535.7,286046999.5,N
1508296555.6,286046995.4,N
1508296575.4,286046996.7,N
1508296595.2,286046999.8,N
1508296615.0,286047002.6,N
1508296616.0,286047002.6,N
1508296635.8,286047000.3,N
1508296655.6,286046995.1,N
1508296675.4,286046998.7,N
1508296695.3,286047002.4,N
1508296715.1,286047002.1,N
1508296735.8,286047001.6,N
1508296755.7,286047003.7,N
1508296775.5,286047000.2,N
1508296795.3,286046996.9,N
1508296815.2,286046997.9,N
1508296835.9,286046999.1,N
1508296855.7,286046999.2,N
1508296875.6,286046995.3,N
1508296895.4,286046997.5,N
1508296915.2,286046993.5,N
1508296935.1,286046991.8,N
1508296936.0,286046991.8,N
1508296955.8,286046994.5,N
1508296975.6,286046990.2,N
1508296995.5,286046991.3,N
1508297015.3,286046990.7,N
1508297035.1,286046991.5,N
1508297055.8,286046993.2,N
1508297075.7,286046991.5,N
1508297095.5,286046985.4,Y
1508297115.4,286046997.9,P
1508297135.2,286046996.5,P
1508297155.0,286046997.7,P
1508297155.9,286046997.7,Y
1508297175.8,286047003.6,P
1508297195.6,286047007.6,N
1508297215.4,286047008.7,N
1508297235.3,286047012.0,N
1508297255.1,286047006.9,N
1508297256.0,286047006.9,N
1508297275.8,286047006.3,N
1508297295.7,286047005.0,N
1508297315.5,286047006.1,N
1508297335.3,286047007.4,N
1508297355.1,286047007.0,N
1508297375.9,286047006.2,N
1508297395.7,286047013.2,Y
1508297415.5,286047002.2,P
1508297435.4,286047000.3,N
1508297455.2,286047001.8,N
1508297475.0,286046999.9,N
1508297475.9,286046999.9,N
1508297495.8,286047002.7,N
1508297515.6,286047000.7,N
1508297535.4,286047001.0,N
1508297555.3,286047002.2,N
1508297575.1,286047004.1,N
1508297576.0,286047004.1,N
1508297595.8,286047003.5,N
1508297615.7,286047002.8,N
1508297635.5,286047002.4,N
1508297655.3,286047002.6,N
1508297675.2,286047001.6,N
1508297695.9,286047000.6,N
1508297715.7,286046997.4,N
1508297735.6,286046996.6,N
1508297755.4,286046999.3,N
1508297775.2,286047000.3,N
1508297795.0,286047000.0,N
1508297796.0,286047000.0,N
1508297815.8,286047002.3,N
1508297835.6,286047000.6,N
1508297855.4,286047000.7,N
1508297875.3,286046999.5,N
1508297895.1,286046997.9,N
1508297915.8,286046995.6,N
1508297935.7,286046995.2,N
1508297955.5,286046996.6,N
1508297975.3,286046998.6,N
1508297995.2,286046997.6,N
1508298015.9,286046994.9,N
1508298035.7,286046992.4,N
1508298055.6,286046992.6,N
1508298075.4,286046993.6,N
1508298095.2,286046988.6,Y
1508298115.1,286046992.5,P
1508298116.0,286046992.5,N
1508298135.8,286046995.9,N
1508298155.6,286046995.4,N
1508298175.5,286046993.4,N
1508298195.3,286046991.9,Y
1508298215.1,286046998.8,P
1508298235.9,286046995.2,N
1508298255.7,286046995.8,N
1508298275.5,286046995.6,N
1508298295.4,286046995.7,Y
1508298315.2,286046999.2,P
1508298335.0,286046996.6,N
1508298335.9,286046996.6,N
1508298355.8,286047000.7,N
1508298375.6,286047001.8,N
1508298395.4,286047001.5,N
1508298415.3,286046999.7,N
1508298435.1,286047001.0,N
1508298436.0,286047001.0,N
1508298455.8,286046997.1,N
1508298475.7,286046996.2,N
1508298495.5,286046995.2,N
1508298515.3,286046998.0,N
1508298535.1,286046997.4,N
1508298555.9,286046997.9,N
1508298575.7,286046994.0,N
1508298595.5,286046995.7,N
1508298615.4,286046994.5,N
1508298635.2,286046995.5,N
1508298655.0,286046995.8,N
1508298655.9,286046995.8,N
1508298675.8,286046994.6,N
1508298695.6,286046995.8,N
1508298715.4,286046996.0,N
1508298735.3,286046997.6,N
1508298755.1,286046996.4,N
1508298756.0,286046996.4,N
1508298775.8,286046994.9,N
1508298795.7,286046999.3,N
1508298815.5,286046996.5,N
1508298835.3,286046997.7,N
1508298855.2,286046996.1,N
1508298875.9,286046993.5,N
1508298895.7,286046994.2,N
1508298915.5,286046994.4,N
1508298935.4,286046994.5,N
1508298955.2,286046993.7,Y
1508298975.0,286046998.3,P
1508298976.0,286046998.3,N
1508298995.8,286046994.6,P
1508299015.6,286046993.4,Y
1508299035.5,286046999.9,P
1508299055.3,286047002.4,N
1508299075.1,286047002.5,N
1508299095.8,286047003.1,N
1508299115.7,286047002.9,N
1508299135.5,286047007.1,Y
1508299155.3,286047007.1,P
1508299175.2,286047004.5,N
1508299195.0,286047007.2,P
1508299195.9,286047007.2,N
